| time (UTC) | temp F | wind direction | speed knots | gust knots | rain 1hr in | rain 24hr in | rain mn in | humidity % | barometer mb |
| 20260506171326 | 53 | 25 | 3.5 | 10.4 | 0.00 | 0.00 | 0.00 | 72 | 1008.9 |
| 20260506170820 | 54 | 45 | 3.5 | 7.8 | 0.00 | 0.00 | 0.00 | 73 | 1009.0 |
| 20260506170321 | 54 | 0 | 2.6 | 7.8 | 0.00 | 0.00 | 0.00 | 72 | 1008.9 |
| 20260506165820 | 54 | 358 | 3.5 | 8.7 | 0.00 | 0.00 | 0.00 | 72 | 1008.9 |
| 20260506165319 | 54 | 355 | 2.6 | 12.2 | 0.00 | 0.00 | 0.00 | 71 | 1008.8 |
| 20260506164819 | 55 | 35 | 3.5 | 12.2 | 0.00 | 0.00 | 0.00 | 72 | 1008.9 |
| 20260506164318 | 55 | 10 | 3.5 | 7.8 | 0.00 | 0.00 | 0.00 | 71 | 1008.7 |
| 20260506163815 | 54 | 18 | 1.7 | 7.8 | 0.00 | 0.00 | 0.00 | 73 | 1008.8 |
| 20260506163315 | 54 | 28 | 3.5 | 7.8 | 0.00 | 0.00 | 0.00 | 72 | 1008.9 |
| 20260506162813 | 54 | 7 | 1.7 | 6.1 | 0.00 | 0.00 | 0.00 | 72 | 1008.8 |
| 20260506162315 | 54 | 31 | 1.7 | 8.7 | 0.00 | 0.00 | 0.00 | 71 | 1008.8 |
| 20260506161812 | 54 | 23 | 2.6 | 8.7 | 0.00 | 0.00 | 0.00 | 71 | 1008.8 |
| 20260506161313 | 54 | 13 | 2.6 | 7.8 | 0.00 | 0.00 | 0.00 | 71 | 1008.9 |
| 20260506160812 | 54 | 10 | 3.5 | 7.8 | 0.00 | 0.00 | 0.00 | 71 | 1008.9 |
| 20260506160311 | 54 | 0 | 3.5 | 8.7 | 0.00 | 0.00 | 0.00 | 71 | 1008.9 |
| 20260506155815 | 54 | 10 | 4.3 | 8.7 | 0.00 | 0.00 | 0.00 | 71 | 1009.0 |
| 20260506155310 | 54 | 21 | 3.5 | 9.6 | 0.00 | 0.00 | 0.00 | 72 | 1008.8 |
| 20260506154817 | 54 | 25 | 2.6 | 10.4 | 0.00 | 0.00 | 0.00 | 71 | 1008.9 |
| 20260506154309 | 54 | 23 | 2.6 | 10.4 | 0.00 | 0.00 | 0.00 | 72 | 1008.9 |
| 20260506153810 | 54 | 8 | 2.6 | 8.7 | 0.00 | 0.00 | 0.00 | 72 | 1009.0 |
| 20260506153307 | 54 | 21 | 2.6 | 8.7 | 0.00 | 0.00 | 0.00 | 73 | 1008.9 |
| 20260506152805 | 54 | 0 | 2.6 | 8.7 | 0.00 | 0.00 | 0.00 | 72 | 1008.9 |
| 20260506152306 | 54 | 344 | 3.5 | 6.1 | 0.00 | 0.00 | 0.00 | 73 | 1008.9 |
| 20260506151806 | 54 | 35 | 2.6 | 5.2 | 0.00 | 0.00 | 0.00 | 75 | 1008.8 |
| 20260506151306 | 54 | 348 | 2.6 | 6.1 | 0.00 | 0.00 | 0.00 | 74 | 1008.9 |
| 20260506150807 | 54 | 27 | 2.6 | 7.8 | 0.00 | 0.00 | 0.00 | 74 | 1008.8 |
| 20260506150305 | 54 | 21 | 3.5 | 7.8 | 0.00 | 0.00 | 0.00 | 74 | 1008.9 |
| 20260506145805 | 54 | 345 | 3.5 | 8.7 | 0.00 | 0.00 | 0.00 | 75 | 1009.0 |
| 20260506145306 | 54 | 39 | 4.3 | 8.7 | 0.00 | 0.00 | 0.00 | 75 | 1009.0 |
| 20260506144805 | 54 | 334 | 2.6 | 9.6 | 0.00 | 0.00 | 0.00 | 75 | 1009.0 |
| 20260506144306 | 54 | 343 | 3.5 | 9.6 | 0.00 | 0.00 | 0.00 | 75 | 1008.9 |
| 20260506143805 | 55 | 31 | 3.5 | 8.7 | 0.00 | 0.00 | 0.00 | 76 | 1008.9 |
| 20260506143305 | 55 | 0 | 3.5 | 8.7 | 0.00 | 0.00 | 0.00 | 75 | 1008.9 |
| 20260506142805 | 55 | 0 | 3.5 | 7.8 | 0.00 | 0.00 | 0.00 | 76 | 1009.0 |
| 20260506142306 | 55 | 18 | 2.6 | 10.4 | 0.00 | 0.00 | 0.00 | 75 | 1008.9 |
| 20260506141804 | 55 | 51 | 2.6 | 10.4 | 0.00 | 0.00 | 0.00 | 76 | 1008.9 |
| 20260506141303 | 55 | 334 | 3.5 | 6.1 | 0.00 | 0.00 | 0.00 | 75 | 1009.0 |
| 20260506140804 | 55 | 20 | 3.5 | 6.1 | 0.00 | 0.00 | 0.00 | 75 | 1008.9 |
| 20260506140303 | 55 | 16 | 2.6 | 6.1 | 0.00 | 0.00 | 0.00 | 75 | 1008.8 |
| 20260506135803 | 55 | 8 | 2.6 | 6.1 | 0.00 | 0.00 | 0.00 | 75 | 1008.8 |
| 20260506135305 | 55 | 8 | 3.5 | 9.6 | 0.00 | 0.00 | 0.00 | 75 | 1008.8 |
| 20260506134800 | 55 | 28 | 3.5 | 9.6 | 0.00 | 0.00 | 0.00 | 75 | 1008.9 |
| 20260506134259 | 55 | 27 | 2.6 | 5.2 | 0.00 | 0.00 | 0.00 | 76 | 1008.8 |
| 20260506133801 | 55 | 18 | 3.5 | 5.2 | 0.00 | 0.00 | 0.00 | 74 | 1008.8 |
| 20260506133259 | 55 | 71 | 2.6 | 7.8 | 0.00 | 0.00 | 0.00 | 75 | 1008.8 |
| 20260506132752 | 55 | 28 | 3.5 | 8.7 | 0.00 | 0.00 | 0.00 | 76 | 1008.8 |
| 20260506132248 | 55 | 0 | 3.5 | 11.3 | 0.00 | 0.00 | 0.00 | 74 | 1008.8 |
| 20260506131748 | 56 | 17 | 3.5 | 11.3 | 0.00 | 0.00 | 0.00 | 74 | 1008.8 |
| 20260506131248 | 56 | 341 | 3.5 | 7.8 | 0.00 | 0.00 | 0.00 | 71 | 1008.8 |
| 20260506130748 | 56 | 7 | 2.6 | 7.8 | 0.00 | 0.00 | 0.00 | 70 | 1008.7 |
| 20260506130249 | 57 | 27 | 3.5 | 7.8 | 0.00 | 0.00 | 0.00 | 71 | 1008.6 |
| 20260506125749 | 57 | 330 | 3.5 | 8.7 | 0.00 | 0.00 | 0.00 | 71 | 1008.7 |
| 20260506125246 | 57 | 34 | 3.5 | 8.7 | 0.00 | 0.00 | 0.00 | 71 | 1008.7 |
| 20260506124746 | 57 | 27 | 2.6 | 7.8 | 0.00 | 0.00 | 0.00 | 70 | 1008.6 |
| 20260506124247 | 57 | 0 | 2.6 | 4.3 | 0.00 | 0.00 | 0.00 | 69 | 1008.6 |
| 20260506123744 | 57 | 11 | 2.6 | 5.2 | 0.00 | 0.00 | 0.00 | 67 | 1008.6 |
| 20260506123245 | 56 | 23 | 3.5 | 7.8 | 0.00 | 0.00 | 0.00 | 67 | 1008.6 |
| 20260506122744 | 57 | 17 | 3.5 | 10.4 | 0.00 | 0.00 | 0.00 | 66 | 1008.5 |
| 20260506122244 | 57 | 48 | 4.3 | 10.4 | 0.00 | 0.00 | 0.00 | 67 | 1008.5 |
| 20260506121744 | 56 | 14 | 2.6 | 6.1 | 0.00 | 0.00 | 0.00 | 66 | 1008.5 |
| 20260506121243 | 56 | 45 | 3.5 | 6.1 | 0.00 | 0.00 | 0.00 | 67 | 1008.5 |
| 20260506120742 | 56 | 56 | 3.5 | 6.1 | 0.00 | 0.00 | 0.00 | 66 | 1008.4 |
| 20260506120243 | 56 | 21 | 3.5 | 5.2 | 0.00 | 0.00 | 0.00 | 68 | 1008.5 |
| 20260506115742 | 56 | 24 | 3.5 | 8.7 | 0.00 | 0.00 | 0.00 | 67 | 1008.5 |
| 20260506115244 | 56 | 25 | 4.3 | 8.7 | 0.00 | 0.00 | 0.00 | 65 | 1008.4 |
| 20260506114742 | 57 | 42 | 3.5 | 5.2 | 0.00 | 0.00 | 0.00 | 66 | 1008.5 |
| 20260506114243 | 57 | 25 | 2.6 | 6.1 | 0.00 | 0.00 | 0.00 | 66 | 1008.4 |
| 20260506113751 | 57 | 47 | 3.5 | 6.1 | 0.00 | 0.00 | 0.00 | 66 | 1008.5 |
| 20260506113249 | 56 | 47 | 2.6 | 5.2 | 0.00 | 0.00 | 0.00 | 65 | 1008.5 |
| 20260506112750 | 56 | 13 | 3.5 | 8.7 | 0.00 | 0.00 | 0.00 | 66 | 1008.4 |
| 20260506112248 | 56 | 45 | 4.3 | 8.7 | 0.00 | 0.00 | 0.00 | 66 | 1008.5 |
| 20260506111746 | 56 | 38 | 2.6 | 6.1 | 0.00 | 0.00 | 0.00 | 66 | 1008.4 |
| 20260506111245 | 56 | 24 | 4.3 | 7.8 | 0.00 | 0.00 | 0.00 | 68 | 1008.3 |
| 20260506110745 | 56 | 14 | 3.5 | 7.8 | 0.00 | 0.00 | 0.00 | 67 | 1008.4 |
| 20260506110241 | 56 | 39 | 3.5 | 9.6 | 0.00 | 0.00 | 0.00 | 66 | 1008.4 |
| 20260506105742 | 56 | 18 | 3.5 | 9.6 | 0.00 | 0.00 | 0.00 | 67 | 1008.3 |
| 20260506105241 | 56 | 11 | 2.6 | 9.6 | 0.00 | 0.00 | 0.00 | 69 | 1008.3 |
| 20260506104741 | 56 | 10 | 3.5 | 9.6 | 0.00 | 0.00 | 0.00 | 67 | 1008.3 |
| 20260506104242 | 56 | 44 | 4.3 | 10.4 | 0.00 | 0.00 | 0.00 | 68 | 1008.3 |
| 20260506103740 | 56 | 86 | 3.5 | 10.4 | 0.00 | 0.00 | 0.00 | 68 | 1008.3 |
| 20260506103241 | 56 | 3 | 3.5 | 8.7 | 0.00 | 0.00 | 0.00 | 68 | 1008.2 |
| 20260506102740 | 56 | 44 | 4.3 | 12.2 | 0.00 | 0.00 | 0.00 | 68 | 1008.3 |
| 20260506102240 | 56 | 44 | 3.5 | 12.2 | 0.00 | 0.00 | 0.00 | 67 | 1008.2 |
| 20260506101740 | 56 | 62 | 7.0 | 12.2 | 0.00 | 0.00 | 0.00 | 65 | 1008.2 |
| 20260506101240 | 56 | 51 | 3.5 | 12.2 | 0.00 | 0.00 | 0.00 | 68 | 1008.2 |
| 20260506100741 | 56 | 37 | 5.2 | 12.2 | 0.00 | 0.00 | 0.00 | 67 | 1008.1 |
| 20260506100240 | 56 | 0 | 5.2 | 13.0 | 0.00 | 0.00 | 0.00 | 67 | 1008.2 |
| 20260506095740 | 55 | 63 | 6.1 | 13.0 | 0.00 | 0.00 | 0.00 | 67 | 1008.1 |
| 20260506095240 | 55 | 23 | 4.3 | 13.0 | 0.00 | 0.00 | 0.00 | 68 | 1008.1 |
| 20260506094739 | 55 | 56 | 4.3 | 13.0 | 0.00 | 0.00 | 0.00 | 67 | 1008.2 |
| 20260506094240 | 55 | 31 | 5.2 | 11.3 | 0.00 | 0.00 | 0.00 | 68 | 1008.1 |
| 20260506093740 | 55 | 48 | 4.3 | 11.3 | 0.00 | 0.00 | 0.00 | 67 | 1008.1 |
| 20260506093241 | 54 | 39 | 6.1 | 11.3 | 0.00 | 0.00 | 0.00 | 68 | 1008.0 |
| 20260506092740 | 54 | 45 | 3.5 | 11.3 | 0.00 | 0.00 | 0.00 | 69 | 1008.1 |
| 20260506092240 | 54 | 44 | 5.2 | 11.3 | 0.00 | 0.00 | 0.00 | 70 | 1008.1 |
| 20260506091741 | 54 | 41 | 2.6 | 13.9 | 0.00 | 0.00 | 0.00 | 72 | 1008.1 |
| 20260506091240 | 54 | 20 | 2.6 | 13.9 | 0.00 | 0.00 | 0.00 | 70 | 1008.0 |
| 20260506090740 | 54 | 65 | 4.3 | 11.3 | 0.00 | 0.00 | 0.00 | 70 | 1008.0 |
| 20260506090240 | 54 | 30 | 2.6 | 8.7 | 0.00 | 0.00 | 0.00 | 72 | 1008.1 |
| 20260506085740 | 53 | 45 | 2.6 | 12.2 | 0.00 | 0.00 | 0.00 | 70 | 1008.1 |
| 20260506085240 | 53 | 3 | 4.3 | 12.2 | 0.00 | 0.00 | 0.00 | 70 | 1008.1 |
| 20260506084740 | 53 | 39 | 3.5 | 11.3 | 0.00 | 0.00 | 0.00 | 71 | 1008.1 |
| 20260506084241 | 53 | 21 | 3.5 | 11.3 | 0.00 | 0.00 | 0.00 | 72 | 1008.1 |
| 20260506083739 | 53 | 34 | 2.6 | 6.1 | 0.00 | 0.00 | 0.00 | 75 | 1008.1 |
| 20260506083240 | 53 | 0 | 2.6 | 8.7 | 0.00 | 0.00 | 0.00 | 75 | 1008.1 |
| 20260506082740 | 52 | 30 | 2.6 | 8.7 | 0.00 | 0.00 | 0.00 | 74 | 1008.1 |
| 20260506082240 | 52 | 87 | 1.7 | 5.2 | 0.00 | 0.00 | 0.00 | 75 | 1008.1 |
| 20260506081740 | 52 | 47 | 2.6 | 7.8 | 0.00 | 0.00 | 0.00 | 75 | 1008.1 |
| 20260506081240 | 52 | 32 | 2.6 | 7.8 | 0.00 | 0.00 | 0.00 | 76 | 1008.0 |
| 20260506080739 | 52 | 56 | 2.6 | 7.8 | 0.00 | 0.00 | 0.00 | 75 | 1008.1 |
| 20260506080237 | 52 | 31 | 1.7 | 12.2 | 0.00 | 0.00 | 0.00 | 77 | 1008.0 |
| 20260506073233 | 51 | 28 | 1.7 | 5.2 | 0.00 | 0.00 | 0.00 | 78 | 1007.9 |
| 20260506072730 | 51 | 51 | 2.6 | 5.2 | 0.00 | 0.00 | 0.00 | 79 | 1007.8 |
| 20260506072230 | 51 | 20 | 1.7 | 4.3 | 0.00 | 0.00 | 0.00 | 78 | 1007.8 |
| 20260506071730 | 51 | 37 | 2.6 | 9.6 | 0.00 | 0.00 | 0.00 | 79 | 1007.8 |
| 20260506071229 | 51 | 0 | 3.5 | 9.6 | 0.00 | 0.00 | 0.00 | 80 | 1007.7 |
| 20260506070728 | 51 | 37 | 2.6 | 6.1 | 0.00 | 0.00 | 0.00 | 80 | 1007.8 |
| 20260506070228 | 51 | 28 | 3.5 | 9.6 | 0.00 | 0.00 | 0.00 | 81 | 1007.7 |
| 20260506062225 | 50 | 48 | 2.6 | 5.2 | 0.00 | 0.00 | 0.00 | 88 | 1007.7 |
| 20260506061722 | 49 | 37 | 1.7 | 4.3 | 0.00 | 0.00 | 0.00 | 89 | 1007.6 |
| 20260506061221 | 49 | 23 | 2.6 | 5.2 | 0.00 | 0.00 | 0.00 | 89 | 1007.6 |
| 20260506060722 | 49 | 18 | 1.7 | 6.1 | 0.00 | 0.00 | 0.00 | 89 | 1007.6 |
| 20260506060222 | 49 | 23 | 2.6 | 6.1 | 0.00 | 0.00 | 0.00 | 90 | 1007.6 |
| 20260506051215 | 47 | 24 | 1.7 | 2.6 | 0.00 | 0.00 | 0.00 | 91 | 1007.6 |
| 20260506050713 | 46 | 30 | 1.7 | 2.6 | 0.00 | 0.00 | 0.00 | 91 | 1007.7 |
| 20260506050212 | 46 | 24 | 1.7 | 2.6 | 0.00 | 0.00 | 0.00 | 91 | 1007.6 |
| 20260506044712 | 45 | 31 | 1.7 | 1.7 | 0.00 | 0.00 | 0.00 | 91 | 1007.6 |
| 20260506044210 | 45 | 30 | 0.9 | 2.6 | 0.00 | 0.00 | 0.00 | 91 | 1007.7 |
| 20260506043710 | 45 | 21 | 1.7 | 2.6 | 0.00 | 0.00 | 0.00 | 91 | 1007.6 |
| 20260506043210 | 45 | 17 | 1.7 | 2.6 | 0.00 | 0.00 | 0.00 | 91 | 1007.6 |
| 20260506042711 | 45 | 28 | 0.9 | 2.6 | 0.00 | 0.00 | 0.00 | 91 | 1007.6 |
| 20260506042210 | 45 | 20 | 1.7 | 1.7 | 0.00 | 0.00 | 0.00 | 91 | 1007.5 |
| 20260506041709 | 45 | 20 | 0.9 | 1.7 | 0.00 | 0.00 | 0.00 | 91 | 1007.6 |
| 20260506041209 | 45 | 20 | 0.9 | 2.6 | 0.00 | 0.00 | 0.00 | 91 | 1007.5 |
| 20260506040709 | 45 | 20 | 1.7 | 2.6 | 0.00 | 0.00 | 0.00 | 91 | 1007.5 |
| 20260506040208 | 45 | 17 | 0.9 | 1.7 | 0.00 | 0.00 | 0.00 | 91 | 1007.6 |
| 20260506035704 | 45 | 11 | 0.9 | 1.7 | 0.00 | 0.00 | 0.00 | 91 | 1007.6 |
| 20260506035204 | 45 | 16 | 0.9 | 1.7 | 0.00 | 0.00 | 0.00 | 91 | 1007.6 |
| 20260506034703 | 45 | 0 | 0.0 | 1.7 | 0.00 | 0.00 | 0.00 | 91 | 1007.6 |
| 20260506034203 | 45 | 0 | 0.0 | 0.0 | 0.00 | 0.00 | 0.00 | 91 | 1007.6 |
| 20260506033702 | 45 | 34 | 0.0 | 0.0 | 0.00 | 0.00 | 0.00 | 91 | 1007.7 |
| 20260506033202 | 45 | 34 | 0.0 | 0.0 | 0.00 | 0.00 | 0.00 | 91 | 1007.7 |
| 20260506032659 | 45 | 34 | 0.0 | 0.0 | 0.00 | 0.00 | 0.00 | 91 | 1007.7 |
| 20260506032201 | 45 | 34 | 0.0 | 0.0 | 0.00 | 0.00 | 0.00 | 91 | 1007.7 |
| 20260506031701 | 45 | 37 | 0.0 | 0.0 | 0.00 | 0.00 | 0.00 | 91 | 1007.9 |
| 20260506031159 | 45 | 37 | 0.0 | 0.0 | 0.00 | 0.00 | 0.00 | 91 | 1007.8 |
| 20260506030659 | 45 | 37 | 0.0 | 0.0 | 0.00 | 0.00 | 0.00 | 91 | 1007.8 |
| 20260506030159 | 45 | 37 | 0.0 | 0.0 | 0.00 | 0.00 | 0.00 | 91 | 1007.8 |
| 20260506025659 | 44 | 37 | 0.0 | 0.0 | 0.00 | 0.00 | 0.00 | 91 | 1007.9 |
| 20260506025157 | 44 | 37 | 0.0 | 0.0 | 0.00 | 0.00 | 0.00 | 91 | 1007.9 |
| 20260506024657 | 44 | 37 | 0.0 | 0.0 | 0.00 | 0.00 | 0.00 | 91 | 1007.9 |
| 20260506024153 | 44 | 37 | 0.0 | 0.0 | 0.00 | 0.00 | 0.00 | 91 | 1008.1 |
| 20260506023655 | 44 | 37 | 0.0 | 0.0 | 0.00 | 0.00 | 0.00 | 91 | 1008.1 |
| 20260506023154 | 44 | 37 | 0.0 | 0.0 | 0.00 | 0.00 | 0.00 | 90 | 1008.0 |
| 20260506022651 | 44 | 37 | 0.0 | 0.0 | 0.00 | 0.00 | 0.00 | 90 | 1008.1 |
| 20260506022151 | 44 | 37 | 0.0 | 0.0 | 0.00 | 0.00 | 0.00 | 90 | 1008.1 |
| 20260506021156 | 44 | 37 | 0.0 | 0.0 | 0.00 | 0.00 | 0.00 | 90 | 1008.2 |
| 20260506020651 | 44 | 37 | 0.0 | 0.0 | 0.00 | 0.00 | 0.00 | 90 | 1008.1 |
| 20260506020150 | 44 | 37 | 0.0 | 0.0 | 0.00 | 0.00 | 0.00 | 90 | 1008.1 |
| 20260506015650 | 44 | 37 | 0.0 | 0.0 | 0.00 | 0.00 | 0.00 | 90 | 1008.3 |
| 20260506015149 | 44 | 37 | 0.0 | 0.0 | 0.00 | 0.00 | 0.00 | 90 | 1008.2 |
| 20260506014646 | 44 | 37 | 0.0 | 0.0 | 0.00 | 0.00 | 0.00 | 90 | 1008.3 |
| 20260506014147 | 45 | 37 | 0.0 | 0.0 | 0.00 | 0.00 | 0.00 | 90 | 1008.4 |
| 20260506013647 | 45 | 37 | 0.0 | 0.0 | 0.00 | 0.00 | 0.00 | 90 | 1008.4 |
| 20260506013145 | 45 | 37 | 0.0 | 0.0 | 0.00 | 0.00 | 0.00 | 90 | 1008.4 |
| 20260506012647 | 45 | 37 | 0.0 | 0.9 | 0.00 | 0.00 | 0.00 | 89 | 1008.4 |
| 20260506012144 | 45 | 37 | 0.0 | 1.7 | 0.00 | 0.00 | 0.00 | 90 | 1008.3 |
| 20260506011641 | 46 | 37 | 0.9 | 1.7 | 0.00 | 0.00 | 0.00 | 89 | 1008.3 |
| 20260506011141 | 46 | 21 | 0.0 | 0.0 | 0.00 | 0.00 | 0.00 | 89 | 1008.3 |
| 20260506010640 | 46 | 35 | 0.0 | 0.0 | 0.00 | 0.00 | 0.00 | 90 | 1008.3 |
| 20260506010139 | 46 | 35 | 0.0 | 0.0 | 0.00 | 0.00 | 0.00 | 90 | 1008.3 |
| 20260506005639 | 46 | 35 | 0.0 | 0.0 | 0.00 | 0.00 | 0.00 | 89 | 1008.3 |
| 20260506005139 | 47 | 35 | 0.0 | 0.0 | 0.00 | 0.00 | 0.00 | 89 | 1008.4 |
| 20260506004639 | 47 | 35 | 0.0 | 0.0 | 0.00 | 0.00 | 0.00 | 89 | 1008.3 |
| 20260506004139 | 47 | 35 | 0.0 | 0.0 | 0.00 | 0.00 | 0.00 | 89 | 1008.4 |
| 20260506003639 | 47 | 35 | 0.0 | 0.0 | 0.00 | 0.00 | 0.00 | 89 | 1008.3 |
| 20260506003139 | 48 | 35 | 0.0 | 0.0 | 0.00 | 0.00 | 0.00 | 89 | 1008.3 |
| 20260506002639 | 48 | 35 | 0.0 | 0.9 | 0.00 | 0.00 | 0.00 | 89 | 1008.4 |
| 20260506002142 | 48 | 35 | 0.0 | 0.9 | 0.00 | 0.00 | 0.00 | 89 | 1008.5 |
| 20260506001639 | 48 | 35 | 0.9 | 0.9 | 0.00 | 0.00 | 0.00 | 89 | 1008.5 |
| 20260506001141 | 48 | 35 | 0.0 | 1.7 | 0.00 | 0.00 | 0.00 | 89 | 1008.5 |
| 20260506000638 | 48 | 35 | 0.0 | 1.7 | 0.00 | 0.00 | 0.00 | 89 | 1008.5 |
| 20260506000139 | 49 | 55 | 0.9 | 1.7 | 0.00 | 0.00 | 0.00 | 89 | 1008.5 |
| 20260505235639 | 49 | 69 | 0.9 | 1.7 | 0.00 | 0.00 | 0.00 | 88 | 1008.6 |
| 20260505235139 | 49 | 56 | 0.9 | 1.7 | 0.00 | 0.00 | 0.00 | 88 | 1008.6 |
| 20260505234639 | 49 | 56 | 0.9 | 3.5 | 0.00 | 0.00 | 0.00 | 88 | 1008.6 |
| 20260505234140 | 49 | 24 | 0.9 | 3.5 | 0.00 | 0.00 | 0.00 | 88 | 1008.6 |
| 20260505233639 | 50 | 18 | 0.9 | 2.6 | 0.00 | 0.00 | 0.00 | 88 | 1008.7 |
| 20260505233140 | 50 | 45 | 1.7 | 3.5 | 0.00 | 0.00 | 0.00 | 88 | 1008.6 |
| 20260505232639 | 49 | 37 | 1.7 | 3.5 | 0.00 | 0.00 | 0.00 | 88 | 1008.7 |
| 20260505232139 | 49 | 21 | 1.7 | 2.6 | 0.00 | 0.00 | 0.00 | 88 | 1008.7 |
| 20260505231639 | 50 | 21 | 0.9 | 4.3 | 0.00 | 0.00 | 0.00 | 88 | 1008.9 |
| 20260505231139 | 50 | 73 | 1.7 | 5.2 | 0.00 | 0.00 | 0.00 | 88 | 1008.8 |
| 20260505230639 | 50 | 11 | 0.9 | 5.2 | 0.00 | 0.00 | 0.00 | 87 | 1008.9 |
| 20260505230139 | 49 | 6 | 0.9 | 5.2 | 0.00 | 0.00 | 0.00 | 87 | 1008.9 |
| 20260505225639 | 49 | 7 | 1.7 | 5.2 | 0.00 | 0.00 | 0.00 | 87 | 1008.8 |
| 20260505225138 | 49 | 1 | 0.9 | 2.6 | 0.00 | 0.00 | 0.00 | 87 | 1008.9 |
| 20260505224638 | 50 | 28 | 0.9 | 2.6 | 0.00 | 0.00 | 0.00 | 86 | 1009.0 |
| 20260505224139 | 49 | 16 | 1.7 | 3.5 | 0.00 | 0.00 | 0.00 | 86 | 1009.1 |
| 20260505223638 | 49 | 25 | 1.7 | 3.5 | 0.00 | 0.00 | 0.00 | 86 | 1009.2 |
| 20260505223139 | 49 | 27 | 1.7 | 5.2 | 0.00 | 0.00 | 0.00 | 86 | 1009.2 |
| 20260505222638 | 49 | 41 | 1.7 | 5.2 | 0.00 | 0.00 | 0.00 | 86 | 1009.3 |
| 20260505222139 | 49 | 27 | 1.7 | 2.6 | 0.00 | 0.00 | 0.00 | 85 | 1009.3 |
| 20260505221639 | 49 | 7 | 1.7 | 2.6 | 0.00 | 0.00 | 0.00 | 85 | 1009.3 |
| 20260505221136 | 49 | 14 | 1.7 | 2.6 | 0.00 | 0.00 | 0.00 | 85 | 1009.3 |
| 20260505220640 | 49 | 37 | 0.9 | 2.6 | 0.00 | 0.00 | 0.00 | 85 | 1009.3 |
| 20260505220137 | 49 | 20 | 1.7 | 4.3 | 0.00 | 0.00 | 0.00 | 85 | 1009.3 |
| 20260505215635 | 49 | 25 | 0.9 | 5.2 | 0.00 | 0.00 | 0.00 | 85 | 1009.4 |
| 20260505215134 | 49 | 35 | 1.7 | 5.2 | 0.00 | 0.00 | 0.00 | 84 | 1009.2 |
| 20260505214633 | 49 | 7 | 1.7 | 6.1 | 0.00 | 0.00 | 0.00 | 84 | 1009.3 |
| 20260505214134 | 49 | 17 | 1.7 | 6.1 | 0.00 | 0.00 | 0.00 | 84 | 1009.3 |
| 20260505213634 | 49 | 0 | 1.7 | 3.5 | 0.00 | 0.00 | 0.00 | 84 | 1009.2 |
| 20260505213134 | 49 | 20 | 1.7 | 5.2 | 0.00 | 0.00 | 0.00 | 85 | 1009.3 |
| 20260505212635 | 49 | 34 | 1.7 | 5.2 | 0.00 | 0.00 | 0.00 | 85 | 1009.3 |
| 20260505212135 | 49 | 41 | 1.7 | 3.5 | 0.00 | 0.00 | 0.00 | 85 | 1009.4 |
| 20260505211635 | 49 | 7 | 1.7 | 4.3 | 0.00 | 0.00 | 0.00 | 85 | 1009.3 |
| 20260505211134 | 49 | 3 | 1.7 | 4.3 | 0.00 | 0.00 | 0.00 | 85 | 1009.4 |
| 20260505210635 | 49 | 8 | 1.7 | 3.5 | 0.00 | 0.00 | 0.00 | 85 | 1009.5 |
| 20260505210134 | 49 | 21 | 1.7 | 3.5 | 0.00 | 0.00 | 0.00 | 86 | 1009.4 |
| 20260505205633 | 49 | 27 | 1.7 | 5.2 | 0.00 | 0.00 | 0.00 | 86 | 1009.4 |
| 20260505205133 | 49 | 30 | 2.6 | 5.2 | 0.00 | 0.00 | 0.00 | 86 | 1009.4 |
| 20260505204633 | 49 | 6 | 1.7 | 7.8 | 0.00 | 0.00 | 0.00 | 86 | 1009.5 |
| 20260505204133 | 49 | 6 | 1.7 | 7.8 | 0.00 | 0.00 | 0.00 | 86 | 1009.5 |
| 20260505203633 | 49 | 0 | 1.7 | 3.5 | 0.00 | 0.00 | 0.00 | 85 | 1009.6 |
| 20260505203134 | 49 | 8 | 1.7 | 4.3 | 0.00 | 0.00 | 0.00 | 85 | 1009.6 |
| 20260505202633 | 49 | 31 | 1.7 | 5.2 | 0.00 | 0.00 | 0.00 | 85 | 1009.6 |
| 20260505202131 | 49 | 0 | 1.7 | 5.2 | 0.00 | 0.00 | 0.00 | 85 | 1009.6 |
| 20260505201633 | 49 | 18 | 1.7 | 4.3 | 0.00 | 0.00 | 0.00 | 85 | 1009.6 |
| 20260505201131 | 49 | 20 | 1.7 | 8.7 | 0.00 | 0.00 | 0.00 | 84 | 1009.6 |
| 20260505200633 | 49 | 20 | 2.6 | 8.7 | 0.00 | 0.00 | 0.00 | 84 | 1009.6 |
| 20260505200130 | 49 | 4 | 1.7 | 3.5 | 0.00 | 0.00 | 0.00 | 84 | 1009.5 |
| 20260505195630 | 49 | 8 | 1.7 | 4.3 | 0.00 | 0.00 | 0.00 | 84 | 1009.5 |
| 20260505195134 | 49 | 17 | 1.7 | 5.2 | 0.00 | 0.00 | 0.00 | 84 | 1009.5 |
| 20260505194631 | 49 | 8 | 1.7 | 5.2 | 0.00 | 0.00 | 0.00 | 84 | 1009.4 |
| 20260505194129 | 49 | 20 | 2.6 | 6.1 | 0.00 | 0.00 | 0.00 | 84 | 1009.5 |
| 20260505193629 | 49 | 21 | 1.7 | 6.1 | 0.00 | 0.00 | 0.00 | 83 | 1009.6 |
| 20260505193129 | 49 | 14 | 1.7 | 5.2 | 0.00 | 0.00 | 0.00 | 84 | 1009.7 |
| 20260505192630 | 49 | 0 | 1.7 | 5.2 | 0.00 | 0.00 | 0.00 | 84 | 1009.6 |
| 20260505192128 | 49 | 14 | 1.7 | 3.5 | 0.00 | 0.00 | 0.00 | 84 | 1009.6 |
| 20260505191631 | 49 | 16 | 1.7 | 5.2 | 0.00 | 0.00 | 0.00 | 84 | 1009.5 |
| 20260505191129 | 49 | 0 | 1.7 | 7.8 | 0.00 | 0.00 | 0.00 | 84 | 1009.5 |
| 20260505190630 | 49 | 17 | 1.7 | 7.8 | 0.00 | 0.00 | 0.00 | 84 | 1009.5 |
| 20260505190129 | 49 | 20 | 2.6 | 7.8 | 0.00 | 0.00 | 0.00 | 84 | 1009.4 |
| 20260505185628 | 50 | 24 | 1.7 | 7.8 | 0.00 | 0.00 | 0.00 | 84 | 1009.5 |
| 20260505185128 | 50 | 17 | 1.7 | 5.2 | 0.00 | 0.00 | 0.00 | 85 | 1009.3 |
| 20260505184627 | 50 | 3 | 2.6 | 6.1 | 0.00 | 0.00 | 0.00 | 85 | 1009.3 |
| 20260505184127 | 50 | 21 | 1.7 | 7.8 | 0.00 | 0.00 | 0.00 | 85 | 1009.2 |
| 20260505183623 | 50 | 7 | 3.5 | 7.8 | 0.00 | 0.00 | 0.00 | 85 | 1009.3 |
| 20260505183123 | 50 | 13 | 1.7 | 5.2 | 0.00 | 0.00 | 0.00 | 85 | 1009.3 |
| 20260505182625 | 50 | 7 | 1.7 | 4.3 | 0.00 | 0.00 | 0.00 | 85 | 1009.3 |
| 20260505182121 | 50 | 3 | 1.7 | 7.8 | 0.00 | 0.00 | 0.00 | 85 | 1009.3 |
| 20260505181622 | 50 | 37 | 1.7 | 7.8 | 0.00 | 0.00 | 0.00 | 84 | 1009.4 |
| 20260505181122 | 50 | 48 | 1.7 | 5.2 | 0.00 | 0.00 | 0.00 | 84 | 1009.3 |
| 20260505180620 | 50 | 7 | 2.6 | 5.2 | 0.00 | 0.00 | 0.00 | 84 | 1009.3 |
| 20260505180119 | 50 | 0 | 1.7 | 4.3 | 0.00 | 0.00 | 0.00 | 84 | 1009.4 |
| 20260505175621 | 50 | 14 | 2.6 | 4.3 | 0.00 | 0.00 | 0.00 | 83 | 1009.3 |
| 20260505175117 | 50 | 21 | 1.7 | 5.2 | 0.00 | 0.00 | 0.00 | 84 | 1009.4 |
| 20260505174617 | 50 | 11 | 2.6 | 5.2 | 0.00 | 0.00 | 0.00 | 83 | 1009.4 |
| 20260505173617 | 51 | 6 | 1.7 | 6.1 | 0.00 | 0.00 | 0.00 | 84 | 1009.4 |
| 20260505173116 | 50 | 28 | 2.6 | 6.1 | 0.00 | 0.00 | 0.00 | 83 | 1009.4 |
| 20260505172616 | 51 | 11 | 2.6 | 5.2 | 0.00 | 0.00 | 0.00 | 83 | 1009.4 |
| 20260505172115 | 51 | 0 | 2.6 | 7.8 | 0.00 | 0.00 | 0.00 | 83 | 1009.5 |
| 20260505171614 | 51 | 4 | 3.5 | 7.8 | 0.00 | 0.00 | 0.00 | 83 | 1009.5 |